Regional Weather Roundup
Issued by NWS

Home | Current Version | Previous Version | Graphics & Text | Print | Product List | Glossary On
Versions: 1 2 3 4 5 6 7 8 9 10 11 12 13 14 15 16 17 18 19 20 21 22 23 24 25 26 27 28 29 30 31 32 33 34 35 36 37 38 39 40 41 42 43 44 45 46 47 48 49 50
000
ASUS43 KMPX 172010
RWRMN
WEATHER ROUNDUP FOR MINNESOTA
NATIONAL WEATHER SERVICE TWIN CITIES/CHANHASSEN MN
200 PM CST TUE JAN 17 2017


NOTE: "FAIR" INDICATES FEW OR NO CLOUDS BELOW 12,000 FEET WITH NO
SIGNIFICANT WEATHER AND/OR OBSTRUCTIONS TO VISIBILITY. N/A MEANS
CURRENT SKY AND/OR WEATHER CONDITIONS ARE NOT AVAILABLE.

MNZ060>063-068>070-172100-
   Twin Cities Metro

CITY           SKY/WX    TMP DP  RH WIND       PRES   REMARKS
TWIN CITIES    CLOUDY    35  29  78 NW10      29.97R WCI  27
ST PAUL        CLOUDY    34  30  85 NW12      29.98R WCI  25
CRYSTAL        CLOUDY    34  28  79 W8        29.96S WCI  27
BLAINE         CLOUDY    36  30  80 W13       29.96S
LAKEVILLE      CLOUDY    32  32 100 W12       29.96R FOG     WCI  23
EDEN PRAIRIE   CLOUDY    35  32  88 NW5       29.96R FOG     WCI  31
SOUTH ST PAUL  CLOUDY    36  31  85 W9        29.96S
LAKE ELMO      FAIR      34  30  86 NW5       29.96S WCI  30
$$
MNZ001>005-007-008-013>017-022>024-027-028-172100-
   Northwest Minnesota

CITY           SKY/WX    TMP DP  RH WIND       PRES   REMARKS
BEMIDJI        SUNNY     32  19  59 SW5       29.86F WCI  27
HALLOCK        CLOUDY    18  12  79 S15       29.78F WCI   3
ROSEAU         CLOUDY    23  18  80 S10       29.80F WCI  12
WARROAD        CLOUDY    27  19  74 S3        29.80F
THIEF RVR FALL CLOUDY    22  16  78 S10       29.85F WCI  11
CROOKSTON      CLOUDY    16  12  86 S14       29.87F WCI   1
FOSSTON        CLOUDY    23  16  74 S12       29.86F HAZE    WCI  12
DETROIT LAKES  CLOUDY    27  21  80 SW8       29.91S WCI  18
MOORHEAD       CLOUDY    18  12  79 S9        29.93F WCI   6
PARK RAPIDS    SUNNY     26  17  68 SW6       29.88F WCI  19
MAHNOMEN       FAIR      23  17  80 S13       29.88F WCI  11
$$
MNZ006-009>011-018-025>026-172100-
   North Central Minnesota

CITY           SKY/WX    TMP DP  RH WIND       PRES   REMARKS
BAUDETTE       CLOUDY    26  15  63 S8        29.80F WCI  18
FLAG ISLAND    CLOUDY    14  10  85 S13       29.79F WCI   0
INTL FALLS     CLOUDY    29  15  56 VRB5      29.83F WCI  24
WASKISH        CLOUDY    25  16  68 W3        29.85F
BIG FORK       SUNNY     30  18  59 S6        29.86F WCI  24
LONGVILLE      SUNNY     34  16  47 SW3       29.89F
GRAND RAPIDS   SUNNY     34  16  47 S7        29.90F WCI  28
CRANE LAKE     SUNNY     32  19  59 S3        29.88F
ORR            SUNNY     32  18  55 CALM      29.84F
COOK           SUNNY     34  18  51 CALM      29.87F
WALKER         FAIR      33  20  58 SW6       29.87F WCI  28
$$
MNZ012-019>021-037-172100-
   Northeast Minnesota

CITY           SKY/WX    TMP DP  RH WIND       PRES   REMARKS
DULUTH         MOSUNNY   34  26  72 W9        29.89F WCI  27
ELY            SUNNY     34  23  64 SW3       29.87F
HIBBING        SUNNY     32  17  54 SW5       29.88F WCI  27
EVELETH        SUNNY     30  21  67 CALM      29.89F
DULUTH HARBOR  MOSUNNY   32  28  86 CALM      29.94S FOG
TWO HARBORS    SUNNY     37  30  75 W5        29.88F
SILVER BAY     SUNNY     37  28  70 S5        29.87F
GRAND MARAIS     N/A     32  29  88 S5        29.91S WCI  27
G MARAIS ARPRT SUNNY     37  19  48 S5        29.85F
$$
MNZ029>031-032-039>041-046>048-054>057-064-172100-
   West Central Minnesota

CITY           SKY/WX    TMP DP  RH WIND       PRES   REMARKS
FERGUS FALLS   CLOUDY    16  12  86 S5        29.99F WCI   9
WHEATON        SUNNY     28  21  74 S8        29.98S WCI  20
MORRIS         SUNNY     25  18  74 S5        29.95F WCI  19
ALEXANDRIA     SUNNY     23  15  71 SW7       29.94S WCI  15
ELBOW LAKE     FAIR      16  15  94 SE7       29.94F FOG     WCI   7
WADENA         SUNNY     25  16  68 SW6       29.91F WCI  18
GLENWOOD       SUNNY     23  16  74 SW7       29.95F WCI  15
APPLETON       SUNNY     21  14  73 CALM      29.97F
ORTONVILLE     CLOUDY    25  16  68 CALM      29.96F
MADISON        SUNNY     27  19  74 CALM      29.98F
WILLMAR        CLOUDY    21  21 100 CALM      29.98F FOG
$$
MNZ033>034-036-042>043-049>051-058-059-172100-
   Central Minnesota

CITY           SKY/WX    TMP DP  RH WIND       PRES   REMARKS
ST CLOUD       MOSUNNY   30  27  88 SW7       29.95F WCI  23
SAUK CENTRE    FAIR      25  19  77 SW8       29.95F WCI  16
PAYNESVILLE    CLOUDY    28  28 100 W6        29.96F WCI  22
AITKIN         SUNNY     36  14  41 SW3       29.90F
PINE RIVER     SUNNY     30  19  64 CALM      29.94S
BRAINERD       SUNNY     28  16  60 W3        29.92F
STAPLES        SUNNY     28  16  59 SW3       29.92F
LONG PRAIRIE   FAIR      28  18  64 S7        29.94S WCI  21
LITTLE FALLS   SUNNY     30  21  69 S5        29.94F WCI  25
LITCHFIELD     CLOUDY    32  30  93 CALM      29.97F FOG
BUFFALO        CLOUDY    34  30  86 W6        29.98S WCI  29
MAPLE LAKE     CLOUDY    34  32  92 W8        29.97F WCI  27
HUTCHINSON     CLOUDY    29  28  96 W7        29.99F FOG     WCI  22
$$
MNZ037-044-045-052-053-172100-
   East Central Minnesota

CITY           SKY/WX    TMP DP  RH WIND       PRES   REMARKS
PRINCETON      CLOUDY    36  30  80 SW3       29.95F
MORA           SUNNY     36  25  64 SW5       29.95F
CAMBRIDGE      CLOUDY    34  27  75 W7        29.94S WCI  28
RUSH CITY      SUNNY     36  23  60 W7        29.95S
MOOSE LAKE     SUNNY     37  21  52 W6        29.89F
HINCKLEY       FAIR      37  23  56 W3        29.93F
CLOQUET        SUNNY     36  27  69 CALM      29.89F
MCGREGOR       SUNNY     34  21  60 SW5       29.91F WCI  30
$$
MNZ071>073-080-081-089-090-097-098-172100-
   Southwest Minnesota

CITY           SKY/WX    TMP DP  RH WIND       PRES   REMARKS
MONTEVIDEO     SUNNY     32  19  59 CALM      30.00F
GRANITE FALLS  SUNNY     24  17  75 CALM      30.00F
CANBY            N/A     28  22  78 NW7       29.98F WCI  21
MARSHALL       SUNNY     31  23  72 W13       29.99S WCI  21
REDWOOD FALLS  PTSUNNY   27  19  72 W5        29.99F WCI  22
OLIVIA         CLOUDY    28  23  80 W3        29.98F FOG
PIPESTONE      SUNNY     27  23  86 W7        29.99R WCI  19
WINDOM         FOG       30  30 100 SW8       29.98S VSB 3/4 WCI  23
WORTHINGTON    MOSUNNY   29  26  89 W14       29.99S WCI  18
JACKSON        CLOUDY    30  30 100 W5        29.99S FOG     WCI  25
TRACY          SUNNY     33  26  76 SW9       29.98F WCI  25
SLAYTON        SUNNY     28  25  90 W9        29.99S WCI  19
$$
MNZ065>067-074>077-082>085-091>093-172100-
   South Central Minnesota

CITY           SKY/WX    TMP DP  RH WIND       PRES   REMARKS
MANKATO        FOG       30  29  96 W7        29.99S VSB 3/4 WCI  23
NEW ULM        CLOUDY    27  25  93 W3        29.99F FOG
ST JAMES       CLOUDY    28  27  93 W5        30.00F WCI  23
FAIRMONT       CLOUDY    31  30  96 NW6       30.00S FOG     WCI  25
GLENCOE        CLOUDY    32  32 100 W3        29.97F FOG
FARIBAULT        N/A     34  30  86 W9        29.97R FOG     WCI  26
OWATONNA       CLOUDY    34  28  80 NW3       29.96R FOG
WASECA         FOG       32  32 100 W10       29.99R VSB<1/4 WCI  24
ALBERT LEA     FOG       32  32 100 NW5       29.95S VSB 1/4 WCI  27
$$
MNZ078>079-086>088-094>096-172100-
   Southeast Minnesota

CITY           SKY/WX    TMP DP  RH WIND       PRES   REMARKS
ROCHESTER      FOG       32  32 100 NW14      29.92R VSB 1/2 WCI  22
RED WING       CLOUDY    36  30  80 NW7       29.94R FOG
STANTON        CLOUDY    34  30  85 NW7       29.95R WCI  28
DODGE CENTER   FOG       32  30  93 CALM      29.93R VSB 1/2
WINONA         CLOUDY    34  34 100 NW10      29.92S WCI  26
AUSTIN         FOG       32  30  93 NW6       29.93S VSB 1/4 WCI  26
PRESTON        CLOUDY    32  31  97 NW8       29.91R FOG     WCI  25
$$
ABBREVIATIONS USED IN REMARKS
   TC - TEMPERATURES IN CELSIUS
  WCI - WIND CHILL INDEX
   HX - HEAT INDEX
  VSB - VISIBILITY
$$



USA.gov is the U.S. government's official web portal to all federal, state and local government web resources and services.